Waarnemingen

Advertentie
Mijn weer
Tortosa, Spanje (8238): temperatuur & dauwpunt: 14.01.2018 00:00:00 - 20.01.2018 00:00:00 (CET)Tortosa, Spanje (8238): windsnelheid: 14.01.2018 00:00:00 - 20.01.2018 00:00:00 (CET)Tortosa, Spanje (8238): windrichting: 14.01.2018 00:00:00 - 20.01.2018 00:00:00 (CET)Tortosa, Spanje (8238): luchtdruk: 14.01.2018 00:00:00 - 20.01.2018 00:00:00 (CET)Tortosa, Spanje (8238): zicht: 14.01.2018 00:00:00 - 20.01.2018 00:00:00 (CET)Tortosa, Spanje (8238): neerslag: 14.01.2018 00:00:00 - 20.01.2018 00:00:00 (CET)
Datum & Tijd tt [°C] td [°C] ff [km/u] ff [kn] dd ppp [hPa] vv [km] rr [mm]
20.01.2018 00:00:00 - - - - - - - -
19.01.2018 23:00:00 13,3 2,5 18 10 NW 1021,5 20 0,0
19.01.2018 22:00:00 13,7 2,9 28 15 NW 1020,5 20 -
19.01.2018 21:00:00 14,2 2,7 24 13 NW 1019,9 20 0,0
19.01.2018 20:00:00 14,8 3,9 26 14 WNW 1019,0 20 0,0
19.01.2018 19:00:00 15,8 4,5 22 12 WNW 1018,8 15 -
19.01.2018 18:00:00 16,2 4,9 18 10 WNW 1018,3 20 0,0
19.01.2018 17:00:00 18,5 5,0 9 5 WNW 1017,6 20 0,0
19.01.2018 16:00:00 19,8 4,3 5 3 NW 1017,3 8 -
19.01.2018 15:00:00 19,0 4,7 16 9 NNW 1017,3 19 0,0
19.01.2018 14:00:00 17,4 4,7 8 4 NNW 1017,6 20 0,0
19.01.2018 13:00:00 18,1 5,0 21 11 NW 1018,1 8 -
19.01.2018 12:00:00 16,7 5,3 9 5 NNW 1019,0 20 0,0
19.01.2018 11:00:00 15,2 5,4 13 7 NNW 1019,6 20 0,0
19.01.2018 10:00:00 14,4 5,5 18 10 WNW 1019,1 8 -
19.01.2018 09:00:00 13,1 5,3 8 4 NNW 1019,2 19 0,0
19.01.2018 08:00:00 13,5 5,1 15 8 NNW 1018,7 20 0,0
19.01.2018 07:00:00 13,4 5,0 21 11 NNW 1017,6 30 -
19.01.2018 06:00:00 11,3 4,3 9 5 WNW 1017,9 20 0,0
19.01.2018 05:00:00 8,1 3,7 8 4 Z 1018,3 16 0,0
19.01.2018 04:00:00 9,1 3,5 9 5 Z 1018,8 20 -
19.01.2018 03:00:00 10,5 2,6 5 3 WZW 1019,2 20 0,0
19.01.2018 02:00:00 11,9 1,2 16 9 N 1018,8 20 0,0
19.01.2018 01:00:00 7,3 2,2 15 8 N 1019,4 20 -
19.01.2018 00:00:00 6,4 2,8 8 4 N 1020,7 20 0,0
18.01.2018 23:00:00 7,1 3,0 4 2 N 1020,8 18 0,0
18.01.2018 22:00:00 8,1 3,5 9 5 NW 1020,7 19 -
18.01.2018 21:00:00 9,2 4,4 2 1 O 1021,1 19 0,0
18.01.2018 20:00:00 10,6 5,4 5 3 N 1021,1 19 0,0
18.01.2018 19:00:00 12,4 6,7 4 2 Z 1021,0 7 -
18.01.2018 18:00:00 15,0 4,9 5 3 ZZO 1020,8 20 0,0
18.01.2018 17:00:00 17,6 4,2 8 4 ZO 1021,1 20 0,0
18.01.2018 16:00:00 18,7 1,2 5 3 ZZW 1021,2 8 -
18.01.2018 15:00:00 18,3 0,9 4 2 ZZO 1021,9 20 0,0
18.01.2018 14:00:00 17,9 0,1 5 3 ZZO 1022,9 20 0,0
18.01.2018 13:00:00 17,0 1,0 2 1 O 1024,3 7 -
18.01.2018 12:00:00 14,9 1,7 4 2 N 1025,7 20 0,0
18.01.2018 11:00:00 12,9 2,4 4 2 NO 1026,3 19 0,0
18.01.2018 10:00:00 9,3 1,4 2 1 NNW 1026,4 5 -
18.01.2018 09:00:00 5,1 0,3 0 0 N 1026,2 17 0,0
18.01.2018 08:00:00 6,1 0,4 5 3 ZZO 1025,6 20 0,0
18.01.2018 07:00:00 8,0 0,5 5 3 ZZW 1025,4 30 -
18.01.2018 06:00:00 9,1 0,5 11 6 W 1025,3 20 0,0
18.01.2018 05:00:00 10,2 0,8 8 4 NW 1025,3 20 0,0
18.01.2018 04:00:00 10,0 0,8 9 5 NNW 1025,5 20 -
18.01.2018 03:00:00 11,0 1,0 8 4 N 1025,8 20 0,0
18.01.2018 02:00:00 11,6 1,2 11 6 N 1026,4 20 0,0
18.01.2018 01:00:00 12,0 1,6 11 6 NW 1026,4 20 -
18.01.2018 00:00:00 12,5 1,8 15 8 WNW 1026,3 20 0,0
17.01.2018 23:00:00 12,7 1,1 18 10 NW 1025,9 20 0,0
17.01.2018 22:00:00 12,6 1,3 13 7 NW 1025,6 20 -
17.01.2018 21:00:00 13,2 1,8 21 11 NW 1025,0 20 0,0
17.01.2018 20:00:00 13,4 1,7 15 8 NNW 1024,6 20 0,0
17.01.2018 19:00:00 13,6 2,2 22 12 NNW 1023,8 30 -
17.01.2018 18:00:00 14,0 1,9 31 17 NNW 1022,6 - 0,0
17.01.2018 17:00:00 15,5 0,9 24 13 N 1022,8 - 0,0
17.01.2018 16:00:00 16,5 1,0 35 19 NW 1022,0 15 -
17.01.2018 15:00:00 17,3 1,3 28 15 NW 1021,1 19 0,0
17.01.2018 14:00:00 17,3 1,3 28 15 WNW 1020,8 20 0,0
17.01.2018 13:00:00 17,0 1,0 13 7 NW 1021,6 15 -
17.01.2018 12:00:00 18,3 2,6 22 12 WZW 1021,9 20 0,0
17.01.2018 11:00:00 17,9 3,7 13 7 N 1021,8 20 0,0
17.01.2018 10:00:00 17,5 4,1 11 6 NW 1020,8 15 -
17.01.2018 09:00:00 16,3 5,6 11 6 N 1020,1 20 0,0
17.01.2018 08:00:00 16,1 4,8 16 9 NNW 1019,9 20 0,0
17.01.2018 07:00:00 16,4 5,6 21 11 N 1019,3 30 -
17.01.2018 06:00:00 16,5 5,4 18 10 NNW 1018,9 20 0,0
17.01.2018 05:00:00 16,4 5,4 16 9 NNW 1019,0 20 0,0
17.01.2018 04:00:00 16,7 5,3 21 11 NNW 1019,1 20 -
17.01.2018 03:00:00 16,7 5,3 22 12 NW 1019,0 20 0,0
17.01.2018 02:00:00 16,6 5,5 28 15 WNW 1019,6 20 0,0
17.01.2018 01:00:00 16,7 5,6 26 14 WNW 1020,1 18 -
17.01.2018 00:00:00 16,4 5,9 35 19 WNW 1020,4 20 0,0
16.01.2018 23:00:00 16,3 6,1 34 18 WNW 1020,7 20 0,0
16.01.2018 22:00:00 17,2 6,1 29 16 WNW 1020,9 20 -
16.01.2018 21:00:00 16,9 5,8 15 8 NW 1020,6 20 0,0
16.01.2018 20:00:00 16,8 6,0 16 9 NNW 1020,4 20 0,0
16.01.2018 19:00:00 17,6 6,1 22 12 WNW 1020,4 10 -
16.01.2018 18:00:00 18,3 6,2 18 10 NW 1019,8 20 0,0
16.01.2018 17:00:00 20,0 6,3 18 10 NW 1019,8 20 0,0
16.01.2018 16:00:00 20,8 6,0 24 13 NW 1019,4 8 -
16.01.2018 15:00:00 20,9 6,0 29 16 WNW 1019,3 20 0,0
16.01.2018 14:00:00 20,5 5,7 31 17 WNW 1020,0 20 0,0
16.01.2018 13:00:00 20,4 5,2 22 12 NW 1021,4 8 -
16.01.2018 12:00:00 19,2 4,5 18 10 NW 1022,7 20 0,0
16.01.2018 11:00:00 17,6 4,2 18 10 NW 1023,5 20 0,0
16.01.2018 10:00:00 16,4 3,8 22 12 WNW 1023,6 8 -
16.01.2018 09:00:00 12,6 3,3 13 7 N 1023,5 20 0,0
16.01.2018 08:00:00 10,9 2,7 11 6 N 1022,7 20 0,0
16.01.2018 07:00:00 9,4 2,0 11 6 N 1022,9 10 -
16.01.2018 06:00:00 6,7 0,8 4 2 ZZO 1022,7 19 0,0
16.01.2018 05:00:00 6,3 1,4 5 3 Z 1022,7 20 0,0
16.01.2018 04:00:00 6,7 2,2 5 3 Z 1023,1 15 -
16.01.2018 03:00:00 6,8 2,5 5 3 W 1023,6 19 0,0
16.01.2018 02:00:00 6,3 2,9 8 4 ZZO 1023,8 20 0,0
16.01.2018 01:00:00 6,6 3,0 5 3 ZW 1024,6 20 -
16.01.2018 00:00:00 7,1 3,0 5 3 W 1025,3 20 0,0
15.01.2018 23:00:00 7,0 3,1 5 3 N 1025,2 20 0,0
15.01.2018 22:00:00 7,9 3,4 5 3 NNW 1025,1 20 -
15.01.2018 21:00:00 9,3 3,9 4 2 ZZO 1025,1 20 0,0
15.01.2018 20:00:00 9,8 3,7 5 3 ZZO 1024,8 20 0,0
15.01.2018 19:00:00 11,3 3,3 9 5 ZW 1025,4 7 -
15.01.2018 18:00:00 12,3 2,4 8 4 NNW 1024,6 20 0,0
15.01.2018 17:00:00 14,1 2,3 9 5 N 1024,1 20 0,0
15.01.2018 16:00:00 15,2 1,7 11 6 NW 1023,7 8 -
15.01.2018 15:00:00 15,2 1,7 13 7 NNW 1023,8 20 0,0
15.01.2018 14:00:00 14,4 1,3 18 10 WNW 1024,0 20 0,0
15.01.2018 13:00:00 14,4 1,6 21 11 WNW 1025,4 5 -
15.01.2018 12:00:00 14,3 1,9 15 8 WNW 1025,9 12 0,0
15.01.2018 11:00:00 13,1 1,7 13 7 WNW 1026,0 20 0,0
15.01.2018 10:00:00 11,1 2,1 4 2 W 1025,3 5 -
15.01.2018 09:00:00 9,1 2,0 5 3 N 1024,6 20 0,0
15.01.2018 08:00:00 7,7 1,5 9 5 N 1023,9 20 0,0
15.01.2018 07:00:00 9,2 1,8 11 6 NW 1023,2 10 -
15.01.2018 06:00:00 8,9 1,5 13 7 W 1022,4 20 0,0
15.01.2018 05:00:00 9,3 1,4 9 5 WNW 1022,1 20 0,0
15.01.2018 04:00:00 9,0 1,9 9 5 NNW 1022,2 20 -
15.01.2018 03:00:00 9,8 1,9 18 10 WNW 1021,7 20 0,0
15.01.2018 02:00:00 9,4 2,0 11 6 NW 1021,6 20 0,0
15.01.2018 01:00:00 9,8 1,9 11 6 NNW 1021,6 20 -
15.01.2018 00:00:00 10,2 2,1 11 6 NW 1021,6 20 0,0
14.01.2018 23:00:00 10,4 1,7 13 7 NW 1021,0 20 0,0
14.01.2018 22:00:00 10,3 1,6 16 9 WNW 1020,5 20 -
14.01.2018 21:00:00 9,9 2,3 13 7 NW 1020,3 20 0,0
14.01.2018 20:00:00 8,4 2,2 9 5 NW 1019,7 20 0,0
14.01.2018 19:00:00 8,9 2,7 4 2 N 1019,0 20 -
14.01.2018 18:00:00 10,7 2,8 5 3 NNW 1018,2 20 0,0
14.01.2018 17:00:00 13,5 3,0 8 4 NNW 1017,5 20 0,0
14.01.2018 16:00:00 14,0 3,2 8 4 WNW 1017,0 10 -
14.01.2018 15:00:00 15,1 2,6 9 5 NNW 1016,5 20 0,0
14.01.2018 14:00:00 14,3 1,9 11 6 WNW 1016,3 20 0,0
14.01.2018 13:00:00 14,2 1,5 13 7 WNW 1016,5 15 -
14.01.2018 12:00:00 13,2 1,5 11 6 NW 1017,1 20 0,0
14.01.2018 11:00:00 11,9 1,5 9 5 W 1017,6 20 0,0
14.01.2018 10:00:00 10,6 1,4 9 5 WNW 1017,1 15 -
14.01.2018 09:00:00 9,4 2,3 4 2 ZZW 1016,4 20 0,0
14.01.2018 08:00:00 9,4 2,3 15 8 WNW 1015,6 20 0,0
14.01.2018 07:00:00 9,2 2,7 16 9 WNW 1015,1 20 -
14.01.2018 06:00:00 9,0 3,2 13 7 NW 1015,1 20 0,0
14.01.2018 05:00:00 9,3 2,4 11 6 NW 1015,0 20 0,0
14.01.2018 04:00:00 8,9 3,1 5 3 NW 1015,4 20 -
14.01.2018 03:00:00 8,3 3,5 13 7 N 1014,9 20 0,0
14.01.2018 02:00:00 8,4 3,8 13 7 N 1015,0 20 0,0
14.01.2018 01:00:00 8,4 4,8 11 6 N 1015,2 20 -
14.01.2018 00:00:00 8,7 6,3 11 6 N 1015,7 16 0,0

tt = temperatuur
td = dauwpunt
ff = windsnelheid
dd = windrichting
ppp = luchtdruk
vv = zicht
rr = neerslag

Weerstations in de omgeving